Location: Chilton Park
(37.7711°N, 100.0276°W)
Time: 04:17:05
(UTC+00:00)

Cosmos 1500 Rocket - Pass Details

Date: 05 July 2022
Orbit: 602 x 631 km, 82.5° (Epoch: 07 August)

Event Time Altitude Azimuth Distance (km) Brightness Sun altitude
Exits shadow 08:27:42 13° 117° (ESE) 1,801 5.9 -24.8°
Maximum altitude 08:29:43 17° 86° (E) 1,587 6.0 -24.6°
Drops below altitude 10° 08:32:36 10° 46° (NE) 2,013 7.1 -24.4°
Sets 08:35:29 0° 27° (NNE) 2,929 8.5 -24.1°
